Location: Poughquag
(41.6090°N, 73.6820°W)
Time: 11:11:32
(UTC-04:00)

Transit 4A - Pass Details

Date: 02 June 2020
Orbit: 866 x 978 km, 66.8° (Epoch: 06 July)

Event Time Altitude Azimuth Distance (km) Brightness Sun altitude
Rises 00:04:54 0° 151° (SSE) 3,434 - -25.2°
Reaches altitude 10° 00:09:16 10° 119° (ESE) 2,510 - -25.4°
Maximum altitude 00:11:05 12° 101° (E) 2,408 - -25.4°
Exits shadow 00:11:53 11° 92° (E) 2,433 9.9 -25.4°
Drops below altitude 10° 00:12:55 10° 82° (E) 2,525 10.1 -25.5°
Sets 00:17:20 0° 51° (NE) 3,490 11.3 -25.6°
